Wind_Speed
22 22 21 21 20 20 20 20 20 19 19 19 19 19 19 18 18 18 18 18 17 17 16 16 16 15 15 15 15 15 15 15 15 15 15 15 16 16 16 16 16 17 17 18 18 18 19 19 20 20 20 21 21 22 22 22 22 22 22 23 24 23 23 23 23 21 20 20 20 21 21 21 22 21 19 17 16 15 18 23 21 20 22 22 21 20 19 19
24 24 23 23 23 22 22 22 22 22 22 21 21 21 21 21 21 21 20 20 20 19 18 18 17 17 17 17 17 17 18 18 17 17 18 18 18 19 19 19 19 20 20 21 21 21 21 21 22 22 22 22 23 24 25 24 24 23 22 23 24 22 22 22 22 22 21 21 22 23 23 23 24 23 21 17 16 17 18 20 19 18 21 23 23 22 21 21
26 26 25 25 25 25 24 24 24 24 24 24 24 24 24 23 23 23 22 22 21 20 20 19 19 18 18 19 19 19 20 20 20 20 20 20 21 21 21 21 22 22 23 23 23 23 23 23 24 24 25 25 26 27 27 26 25 24 23 23 23 22 22 22 23 24 23 23 24 24 25 25 26 24 22 18 15 18 20 18 17 17 20 23 24 23 23 23
28 28 27 27 27 27 27 27 27 27 26 26 26 26 25 25 24 24 23 22 22 21 21 20 20 20 20 20 20 21 22 23 23 23 22 23 23 24 24 24 24 25 25 25 25 25 25 25 26 27 28 28 28 29 29 27 25 23 22 22 22 21 22 24 24 24 25 25 25 26 25 25 25 25 23 20 17 18 20 20 19 18 19 21 23 24 24 24
31 30 30 30 30 29 29 29 29 29 28 28 27 27 26 25 24 24 23 23 22 22 22 21 21 21 22 22 22 23 24 25 25 25 25 25 25 26 26 26 26 26 27 27 27 27 27 28 29 29 30 30 30 29 28 26 23 21 21 22 22 21 23 26 26 26 27 27 27 27 27 25 25 25 25 23 20 18 20 21 22 21 20 20 22 23 24 24
33 33 32 32 32 32 31 31 30 30 29 28 27 26 26 25 24 24 23 23 23 23 23 23 23 23 23 24 24 25 26 27 27 27 27 26 27 27 28 28 28 28 29 29 30 30 30 31 31 30 30 30 28 27 26 24 22 20 20 21 22 23 24 27 28 28 29 28 28 27 27 26 25 24 24 25 23 20 21 22 23 24 24 23 23 24 25 25
35 34 34 33 33 32 31 31 30 29 29 28 27 27 26 26 25 25 25 24 25 25 24 25 25 25 25 26 26 27 29 30 29 29 29 29 29 30 30 31 31 31 32 32 33 33 33 32 31 29 27 27 25 25 24 22 22 21 21 22 24 25 26 27 28 29 29 29 29 27 26 26 25 23 23 26 25 23 23 23 24 25 26 28 28 27 27 26
36 35 34 33 32 31 31 30 30 29 29 28 28 28 27 27 27 27 27 27 27 27 27 27 28 28 28 29 29 30 32 33 32 32 32 32 32 33 33 34 34 34 34 34 34 33 32 30 28 26 24 24 23 23 23 23 23 23 24 26 27 28 27 28 28 29 29 29 29 28 26 28 27 23 24 27 26 25 25 25 26 26 26 29 31 32 30 29
36 35 34 33 32 32 31 31 31 31 30 30 30 30 30 30 30 30 30 30 30 31 31 31 31 32 32 32 31 32 34 35 34 34 34 34 34 33 34 34 34 35 35 34 32 30 28 27 25 24 23 23 23 24 25 25 26 27 28 29 29 29 28 29 29 30 30 29 31 29 26 28 29 25 25 28 26 25 26 26 28 28 28 30 32 34 34 33
37 36 35 35 34 34 33 33 33 33 33 33 34 34 33 33 33 33 33 33 34 34 34 34 34 34 34 33 31 31 33 33 32 32 32 32 31 31 31 32 32 32 32 31 29 27 26 26 25 25 25 24 24 26 27 28 29 30 31 30 31 30 29 31 32 31 31 31 33 32 29 29 30 27 26 28 27 26 26 26 28 29 30 32 33 34 35 35
39 39 38 37 37 37 36 36 36 36 36 36 37 37 37 36 36 36 36 36 36 36 36 35 35 34 33 32 30 29 31 31 31 31 31 31 30 30 30 30 30 29 29 29 27 27 26 27 27 27 27 27 28 30 31 31 31 32 32 31 31 32 31 32 34 33 33 33 35 35 32 29 30 29 27 28 28 28 27 26 28 31 33 34 33 34 34 34
41 40 40 40 39 39 39 39 39 39 39 39 39 39 39 39 39 38 38 38 38 37 37 36 35 34 32 30 29 30 30 31 32 33 33 33 32 31 31 31 31 30 30 29 28 28 29 29 29 30 31 31 32 33 33 33 33 32 33 32 31 33 32 33 34 34 33 33 35 36 35 31 28 29 29 28 28 29 28 27 29 32 34 34 34 34 33 32
42 41 41 41 40 40 40 40 40 40 40 40 40 40 40 40 39 39 38 38 38 37 36 35 34 34 33 30 31 32 32 32 33 34 35 34 34 33 33 33 33 32 32 32 32 31 32 32 33 34 34 35 34 34 34 34 34 34 35 35 33 33 32 32 34 34 33 33 34 36 37 33 29 28 28 29 29 29 28 28 30 33 34 34 34 34 33 32
42 41 41 41 41 40 40 40 40 40 40 40 40 40 39 39 39 38 38 38 37 37 37 36 35 35 34 32 33 34 34 34 34 35 35 35 35 35 34 34 34 34 34 35 35 34 35 35 36 36 36 36 36 35 35 35 36 36 37 37 36 35 32 31 33 34 34 34 35 36 37 34 30 28 28 28 29 30 28 28 31 33 33 33 32 32 32 32
42 42 41 41 41 41 41 40 40 40 40 40 40 40 40 39 39 39 39 39 39 39 38 38 38 38 37 35 35 35 35 35 35 35 35 35 36 36 35 35 35 36 36 36 36 36 36 37 38 38 37 37 37 37 37 37 37 37 38 38 37 37 34 31 31 33 34 35 36 36 36 34 32 31 30 28 29 30 29 29 32 32 32 31 30 30 31 31
44 44 43 43 42 42 42 42 42 42 42 41 41 41 41 41 41 41 40 40 40 40 40 40 39 40 39 37 36 36 35 36 36 35 35 35 36 36 36 36 36 36 36 36 37 37 37 38 39 39 39 38 37 37 38 38 36 36 38 39 37 37 36 32 29 31 34 36 37 37 37 35 33 34 33 32 31 32 31 32 33 33 33 32 31 31 31 32
43 43 43 42 42 42 42 41 41 41 41 40 40 40 40 40 40 40 40 40 40 39 40 39 39 39 39 37 36 36 36 36 35 35 36 36 36 36 36 37 37 37 37 38 38 38 39 40 40 40 39 38 37 38 39 38 36 36 38 38 38 37 37 35 32 32 35 37 37 37 38 37 36 37 37 36 36 35 35 36 36 36 35 35 34 34 33 33
41 40 40 40 40 40 40 39 39 39 39 39 39 39 39 39 39 39 39 39 39 39 39 39 38 39 39 37 36 37 36 36 36 36 36 37 37 37 38 38 39 39 38 39 39 40 41 41 40 40 38 37 37 38 39 37 36 37 38 39 39 38 37 36 34 35 36 37 37 37 39 39 38 38 38 39 39 37 37 37 37 36 36 35 35 35 35 35
41 40 40 40 40 40 40 40 40 39 39 39 39 39 39 40 40 40 40 40 40 40 41 40 40 40 41 39 39 39 38 37 38 37 37 38 38 38 39 39 39 39 38 39 39 40 40 40 40 39 36 36 38 38 38 38 38 39 39 40 40 39 37 36 37 37 37 37 37 37 40 39 38 37 36 36 37 36 35 35 35 35 35 34 34 34 34 35
42 42 42 41 41 41 41 41 40 40 39 39 39 39 40 40 41 41 40 41 41 41 42 42 41 41 42 41 41 41 40 39 38 37 38 38 38 39 39 39 38 38 38 38 40 39 39 40 40 37 36 38 39 38 38 39 40 41 41 41 40 39 37 37 39 39 39 40 39 39 39 38 36 34 33 33 33 32 33 33 33 33 33 33 33 33 33 33
43 43 42 42 41 41 42 41 40 40 40 39 39 40 40 41 42 42 42 42 42 42 43 43 43 42 41 43 43 42 41 40 38 38 38 38 39 39 39 39 38 38 38 40 40 40 40 41 39 37 38 40 39 39 39 40 41 42 41 41 40 39 38 38 40 40 41 41 40 39 38 36 34 33 32 31 30 30 31 30 31 32 33 32 32 32 33 33
44 44 43 42 42 42 42 42 41 41 40 41 41 41 42 43 43 44 44 44 43 44 45 44 45 45 43 45 45 44 43 41 40 39 40 40 40 40 41 41 39 39 40 41 41 42 43 42 39 39 40 41 40 40 39 40 41 41 41 40 39 39 40 40 40 41 41 40 40 39 38 36 33 32 32 31 30 31 33 32 32 33 34 34 34 34 34 34
45 45 44 44 44 44 43 43 43 42 42 43 43 44 45 46 47 47 47 47 45 45 46 47 47 48 47 47 47 46 46 44 43 42 41 42 42 42 43 42 42 42 43 43 43 45 45 41 39 41 41 41 41 39 38 39 39 39 39 40 39 39 40 40 40 40 40 40 40 38 38 37 34 33 32 32 34 35 37 37 37 37 37 38 38 37 37 37
47 46 46 45 45 46 45 45 45 45 45 45 45 46 47 48 49 50 51 51 49 46 46 48 49 49 49 49 48 47 46 45 45 44 42 43 44 44 44 43 44 44 43 44 45 47 45 39 39 41 40 40 40 37 36 38 38 38 38 38 39 39 39 39 38 38 38 39 40 40 41 40 37 36 35 36 38 39 41 42 41 42 41 41 41 40 40 41
48 48 47 47 47 48 47 47 47 47 47 47 47 48 48 49 50 51 53 54 54 49 47 48 50 51 50 49 48 46 46 46 45 44 43 43 44 44 43 43 44 43 42 43 45 46 41 36 37 39 38 39 38 37 37 38 38 37 37 37 37 37 37 38 38 38 39 39 39 40 43 44 42 41 41 42 43 43 44 45 45 46 46 45 44 42 42 43
50 49 49 49 49 49 49 49 49 49 49 49 50 50 51 51 51 52 53 55 57 53 49 49 50 51 49 48 47 46 46 46 44 44 43 43 43 42 42 41 41 40 40 41 42 41 36 34 36 37 37 38 37 36 37 38 36 35 36 36 36 36 36 37 38 39 41 42 42 40 42 46 47 45 46 47 48 47 48 49 49 49 48 46 44 42 41 41
51 51 51 51 51 51 51 51 51 51 52 52 53 53 54 54 53 52 52 55 57 55 52 51 49 49 48 46 45 44 45 44 41 41 41 40 40 40 40 40 38 38 39 39 39 38 36 35 36 36 37 37 36 37 37 37 36 35 35 35 36 36 37 37 38 40 41 43 45 42 41 47 50 48 49 50 50 50 50 49 49 49 47 46 44 43 41 40
52 52 52 53 52 52 53 54 54 54 55 56 56 56 56 55 54 52 51 54 58 56 54 51 48 46 44 43 43 41 41 40 38 38 38 38 38 38 38 39 38 38 38 38 37 37 37 37 37 36 36 36 36 37 38 37 37 36 36 36 36 37 37 38 39 40 41 44 46 42 41 48 51 49 50 51 49 49 49 48 47 46 46 45 45 45 43 42
53 53 53 54 55 56 57 57 57 58 59 60 59 58 56 54 52 50 50 54 58 57 53 50 47 45 42 41 40 38 38 38 37 37 37 37 37 37 38 38 38 38 38 38 37 38 38 38 38 37 36 36 37 37 37 38 38 38 38 39 39 39 39 39 40 40 41 45 46 41 42 48 50 49 49 48 47 47 47 46 45 44 45 46 46 46 46 46
56 56 57 58 58 59 59 57 57 59 60 59 56 53 51 49 47 48 52 56 57 56 52 49 46 44 42 40 38 38 38 37 37 37 37 37 37 37 37 37 38 38 38 38 38 38 39 38 38 38 37 37 37 37 37 38 38 38 39 40 40 41 41 40 40 40 42 46 45 42 44 47 48 48 47 47 47 47 46 45 45 45 46 47 47 47 48 48
57 57 58 58 58 58 56 53 51 52 52 52 50 48 47 45 45 49 55 57 53 52 51 48 46 44 42 42 41 39 39 38 38 38 38 38 38 38 38 38 39 39 40 39 39 39 40 39 38 38 38 38 37 37 37 38 38 38 39 39 40 41 41 41 41 41 44 46 44 43 45 46 46 47 47 48 48 48 47 46 46 46 47 47 48 48 49 48
55 55 54 55 54 53 53 50 47 46 47 46 45 44 43 43 47 52 54 52 49 50 50 47 46 45 43 43 41 41 41 40 40 39 39 39 39 40 40 41 41 41 40 40 39 40 40 39 38 38 37 36 36 37 38 38 39 39 39 39 39 40 40 41 41 41 43 44 43 45 46 48 48 48 48 48 47 47 47 47 47 47 47 47 48 49 50 50
55 55 54 54 52 51 51 49 45 44 46 45 43 42 41 43 49 51 48 45 44 46 46 45 45 45 44 43 43 44 45 43 42 41 41 41 41 41 41 40 40 40 39 39 39 39 39 38 38 38 37 37 37 37 37 39 39 39 38 38 39 39 40 40 41 42 44 44 45 47 49 51 50 49 48 47 47 48 48 48 48 48 48 49 49 50 51 52
55 57 57 54 51 51 49 44 39 39 41 43 43 44 45 47 50 48 45 42 42 43 45 45 46 46 47 47 47 49 48 46 45 44 43 44 43 42 40 40 39 39 39 39 39 39 39 40 39 38 38 38 38 38 38 39 39 39 39 39 40 39 39 41 43 45 46 46 47 50 52 52 50 49 49 49 49 50 49 49 50 50 51 51 51 52 53 54
51 52 52 52 50 48 45 39 35 35 39 42 46 49 51 51 51 49 47 46 47 47 48 49 50 51 51 51 51 51 49 48 47 46 45 45 43 43 42 41 40 39 39 39 40 41 43 45 43 40 39 40 40 40 41 40 40 41 41 41 41 40 41 43 45 46 48 49 50 52 53 53 51 51 51 52 51 51 51 51 52 52 53 53 53 54 55 56
45 45 46 48 48 45 44 42 38 38 41 45 50 54 53 51 50 49 48 48 48 49 49 50 51 52 52 52 51 50 48 47 47 47 47 46 45 44 43 42 41 41 42 42 43 45 48 48 46 43 42 42 43 43 43 42 42 43 43 43 43 43 44 46 47 48 49 53 54 54 55 56 55 54 55 54 54 53 53 53 53 54 54 54 55 55 55 56
43 43 43 45 45 43 42 42 42 42 43 46 50 51 48 47 47 47 47 47 47 47 47 48 49 50 51 52 51 49 46 46 47 47 47 46 46 46 44 43 43 44 44 44 45 48 49 49 47 45 44 44 44 44 44 44 43 44 45 44 45 46 47 47 50 51 53 57 58 56 56 58 58 58 57 56 55 54 54 53 53 54 54 54 56 56 56 57
43 43 43 43 44 43 41 42 45 46 46 48 48 47 46 46 46 47 47 48 48 49 49 49 49 50 51 51 50 48 47 48 48 48 47 46 47 47 46 46 46 46 45 45 46 47 48 47 47 46 45 44 44 44 45 45 44 45 47 47 47 48 49 51 55 57 59 61 62 59 58 59 59 59 58 56 55 53 53 53 53 53 54 55 56 56 57 57
45 45 46 45 44 43 42 45 48 47 49 51 49 47 48 48 48 48 49 49 49 50 51 51 50 50 51 50 49 49 49 50 49 48 47 47 48 48 48 48 48 46 45 44 43 44 44 45 46 46 44 44 45 46 46 46 47 48 49 49 49 51 54 56 59 60 61 62 63 62 61 59 57 57 57 56 54 52 52 52 52 53 54 55 56 57 57 57
47 47 49 48 47 47 45 47 49 49 50 51 49 48 48 49 50 50 49 48 48 48 49 49 49 50 50 50 50 51 52 53 53 52 51 51 52 52 52 52 50 47 44 42 41 41 42 44 45 45 45 45 47 47 47 48 50 51 51 52 54 56 58 59 60 61 61 62 62 62 62 59 56 56 57 56 54 52 52 51 52 53 54 55 56 57 57 58
50 49 49 49 50 51 50 51 53 54 54 52 50 50 50 49 49 49 49 49 50 50 50 50 50 50 51 52 53 54 54 55 55 55 55 55 55 54 54 53 51 48 45 43 42 43 44 46 46 45 46 46 48 49 50 53 55 57 57 58 59 59 59 60 62 61 60 60 60 61 62 60 56 56 56 54 53 53 52 51 51 52 53 54 55 56 57 58
57 55 54 52 53 53 52 52 53 55 58 57 56 56 55 54 52 51 51 52 52 54 55 55 55 54 53 54 54 54 52 51 51 51 52 52 52 51 52 52 50 48 45 43 42 44 46 49 50 48 48 49 52 55 57 59 60 61 61 60 60 60 60 60 61 60 59 59 60 60 62 60 56 53 53 52 52 51 52 52 52 53 53 53 54 56 58 60
64 63 61 59 58 57 55 54 53 54 57 59 60 60 60 60 59 57 56 54 54 56 57 58 58 57 56 55 55 55 53 51 49 48 47 47 48 49 50 49 48 47 46 45 44 45 48 51 52 52 52 55 58 60 62 62 62 61 61 60 60 60 59 59 60 60 60 61 61 60 62 60 55 52 51 51 51 50 50 51 53 54 54 54 54 55 57 59
65 65 65 64 64 63 62 60 58 57 57 58 60 61 61 61 61 60 57 53 54 57 59 59 58 57 57 56 57 57 57 55 53 50 48 48 50 50 50 49 48 48 49 49 49 50 50 52 54 55 57 59 60 62 63 63 62 62 63 62 61 61 60 61 62 62 63 63 61 60 61 59 54 52 51 52 51 50 51 52 54 55 57 58 58 58 59 60
65 65 67 68 68 67 67 66 64 62 62 62 63 64 63 63 62 60 57 53 54 59 60 59 58 57 57 58 59 58 57 55 54 54 53 53 53 52 51 51 51 51 52 53 54 54 54 56 57 58 60 61 61 63 65 65 64 65 64 64 63 62 62 63 63 63 64 64 61 61 61 58 54 54 54 54 53 53 54 56 57 58 60 61 61 61 62 64
66 67 68 69 70 69 68 67 65 63 63 65 66 66 66 65 61 58 56 54 56 61 61 58 57 56 56 57 57 56 53 52 53 55 55 54 53 52 51 52 52 53 53 55 56 56 58 58 59 60 61 62 62 64 67 67 67 67 66 65 64 63 63 64 65 65 64 63 63 61 60 60 57 55 56 57 56 56 58 59 60 61 61 62 62 63 65 67
68 69 70 70 69 68 68 68 65 62 61 62 64 65 65 63 58 56 54 54 57 62 62 60 59 57 55 54 54 53 52 52 54 55 55 54 54 53 52 52 53 54 54 55 56 57 59 60 60 61 62 63 64 66 68 67 68 67 66 65 63 63 64 65 66 65 62 64 65 61 58 60 58 55 56 58 59 59 60 61 61 62 62 63 63 65 66 68
67 68 70 70 69 67 66 65 65 64 62 62 64 65 64 62 59 55 53 53 57 61 63 63 62 60 58 57 57 58 57 58 58 56 55 55 54 54 54 54 55 55 55 57 58 58 60 62 62 62 63 64 65 67 67 67 68 68 66 64 62 62 65 66 65 63 61 65 65 60 58 61 60 57 58 59 60 62 62 62 62 62 62 64 65 66 67 69
69 69 69 69 69 67 65 64 64 66 66 66 67 66 65 64 61 58 55 56 59 62 63 64 63 62 61 62 63 65 64 62 61 58 57 57 57 56 57 57 57 57 57 58 59 60 62 63 63 64 65 65 66 67 67 67 68 67 65 63 62 63 65 65 63 61 62 63 63 60 60 62 60 58 59 59 60 62 62 61 61 62 63 65 66 68 69 70
68 68 68 68 68 66 66 66 66 67 67 69 69 68 67 67 65 63 63 64 65 64 65 67 66 66 67 68 69 70 67 64 62 61 60 60 60 59 59 59 59 59 60 61 62 63 64 65 65 66 66 66 66 66 66 66 67 66 64 62 62 63 63 62 61 61 62 62 61 61 63 63 59 57 60 61 61 61 61 61 62 64 65 66 68 69 71 72
64 65 65 66 66 66 66 65 64 65 66 67 67 66 66 67 66 66 68 71 71 71 72 72 72 72 73 73 72 71 68 65 65 64 63 63 62 62 62 62 62 62 63 63 64 65 65 66 66 66 67 67 65 64 65 65 66 66 64 62 60 60 60 59 60 60 61 62 63 63 64 63 59 58 62 62 61 61 62 64 65 66 67 67 69 70 72 73
62 63 63 64 65 65 65 64 63 63 63 62 62 62 62 63 63 65 68 70 72 73 74 74 74 74 74 73 71 69 67 66 66 66 66 65 64 64 64 65 64 64 64 64 65 65 65 65 65 65 66 65 63 63 63 63 67 68 64 59 55 55 57 58 59 59 59 62 64 64 64 62 61 62 63 62 62 63 64 66 67 68 68 69 70 71 73 74
Wind_Direction
238 239 241 243 244 246 248 250 252 254 256 258 260 262 264 266 268 270 272 273 273 272 269 265 261 258 257 257 258 258 260 261 263 265 265 268 272 274 274 276 279 280 281 282 284 285 287 288 289 290 290 291 291 291 290 290 291 292 291 290 290 291 292 293 294 293 293 293 293 294 297 300 302 307 310 307 303 300 293 294 305 314 310 308 307 308 310 310
241 242 244 246 247 249 251 253 254 256 258 260 262 264 265 267 268 270 270 270 270 269 267 264 262 260 259 260 261 262 263 264 264 266 267 268 271 273 274 276 278 280 281 282 283 285 286 287 288 288 288 288 289 289 288 289 291 291 289 288 288 289 290 291 291 290 291 291 292 294 298 302 306 309 310 310 309 301 292 295 306 311 309 307 307 307 307 305
243 245 246 248 250 252 253 255 256 258 260 261 263 264 266 267 267 268 267 267 266 265 264 262 261 261 261 262 263 264 265 266 266 267 268 270 272 273 274 276 277 279 280 281 283 284 285 286 286 287 287 287 288 287 287 288 289 288 287 285 286 288 289 288 288 289 290 291 292 295 299 303 305 307 306 307 307 299 296 298 302 306 306 306 307 306 304 301
246 247 249 250 252 254 255 257 258 259 261 262 263 264 265 265 265 264 263 262 261 261 261 260 260 261 262 263 265 266 268 269 269 269 270 272 273 274 275 276 277 278 279 280 281 282 283 285 285 286 287 287 286 286 286 287 287 286 285 285 286 288 288 288 288 288 290 291 292 294 297 301 302 303 304 305 303 298 298 300 300 302 303 303 304 302 300 298
247 249 251 252 254 256 257 258 260 261 261 262 263 263 263 263 262 261 260 259 259 259 259 260 260 261 262 264 266 268 269 270 271 272 272 273 275 276 277 277 277 278 279 279 280 281 282 284 284 285 285 285 284 284 285 285 284 282 283 284 287 289 288 288 289 289 290 291 292 295 298 300 300 301 303 302 299 296 295 296 298 299 300 299 298 296 294 293
250 251 253 254 256 257 258 259 260 260 261 261 262 262 261 261 260 260 260 259 260 260 261 261 262 263 264 266 267 269 270 270 271 273 274 275 275 276 276 277 278 278 279 279 281 282 283 284 284 284 283 282 282 282 281 279 278 276 278 282 286 287 287 288 290 290 290 291 292 294 295 296 295 297 299 297 296 296 294 293 294 296 299 296 293 291 290 289
252 253 253 254 255 256 257 258 258 259 259 260 260 260 260 261 261 261 261 261 262 263 263 264 266 266 267 269 270 272 272 272 272 273 274 275 275 275 276 277 278 278 279 280 281 283 284 284 284 283 281 280 281 280 278 276 274 274 276 280 284 285 285 286 287 287 287 290 290 291 293 292 291 294 295 292 293 295 293 293 293 294 296 295 293 290 287 287
251 251 252 252 253 254 255 255 256 257 257 258 259 259 260 260 261 261 262 263 264 265 266 267 268 269 270 271 272 274 274 274 274 274 275 275 274 275 276 277 278 278 279 280 281 283 283 283 281 280 279 279 279 278 277 276 276 277 279 282 284 284 284 284 284 284 286 288 289 290 293 292 292 294 292 289 291 293 292 292 292 292 293 292 292 290 289 289
249 250 250 251 251 252 253 254 255 256 257 257 258 259 260 260 261 262 262 264 264 266 266 267 268 269 270 271 272 274 274 275 276 276 276 276 276 276 276 277 277 278 279 279 280 281 280 279 278 277 277 277 278 277 276 277 279 281 283 285 285 285 286 286 285 287 288 290 289 290 291 289 290 291 289 287 289 290 290 290 290 291 290 288 287 289 291 292
249 250 251 251 252 253 254 255 256 257 258 258 259 260 261 261 262 263 264 264 265 266 267 267 268 269 270 271 272 272 273 275 276 277 277 278 278 279 278 278 277 277 278 278 278 277 276 276 275 275 275 275 276 276 277 279 281 283 284 285 286 287 288 288 288 290 292 293 292 291 291 289 290 291 289 290 291 290 290 290 290 290 288 285 285 287 290 293
251 251 252 253 254 255 256 257 258 259 259 260 261 262 263 263 264 264 265 266 266 267 267 268 268 269 269 269 270 270 272 274 276 277 278 279 280 280 280 279 278 278 277 276 276 275 274 274 275 275 276 276 277 277 279 281 282 283 284 285 287 288 288 289 291 292 294 294 293 293 291 289 290 292 292 292 293 292 291 290 289 288 286 286 286 287 289 292
252 253 254 255 256 256 257 258 259 260 261 262 262 263 264 264 265 266 266 267 267 267 268 268 268 267 267 267 268 268 270 273 275 276 277 278 278 279 278 279 278 278 277 276 275 274 274 275 276 276 278 279 279 280 281 282 283 284 285 285 285 286 288 289 291 292 293 292 292 291 290 289 290 293 294 293 292 291 290 289 285 283 284 286 288 289 292 294
252 253 254 255 256 256 257 258 259 260 261 262 262 263 264 265 265 266 266 267 267 267 267 267 266 266 265 266 267 268 269 271 273 274 275 277 277 277 276 276 277 277 277 277 276 276 276 277 278 278 280 280 281 282 284 284 285 286 286 286 285 284 286 289 290 291 292 291 289 288 289 290 292 292 292 292 290 288 287 285 281 280 282 285 287 290 292 292
252 253 254 254 255 256 256 257 258 259 260 261 262 263 264 264 265 266 266 267 267 267 267 267 266 265 265 266 266 268 270 270 271 272 273 275 275 275 275 275 275 276 276 277 277 278 278 279 279 280 281 282 283 284 285 286 287 288 287 287 287 286 286 288 289 291 291 289 288 287 288 290 293 292 290 289 287 286 285 281 279 279 281 283 286 288 288 288
251 252 253 253 254 255 255 256 257 258 259 260 261 262 263 264 265 266 266 267 267 267 267 267 267 267 267 267 267 268 269 270 270 270 271 272 273 274 274 275 275 276 276 277 278 278 279 279 280 281 282 283 284 285 286 286 287 288 287 286 287 288 288 287 289 291 290 288 287 287 288 292 295 293 290 288 287 286 285 283 282 282 283 285 286 285 285 285
251 252 252 253 254 254 255 255 256 257 258 259 260 261 262 263 264 264 265 265 266 266 267 267 268 268 268 268 268 268 268 268 269 269 270 270 271 272 273 274 275 275 276 277 278 279 279 279 279 280 282 283 285 286 285 285 286 287 286 287 288 289 289 290 291 290 288 287 287 289 291 294 295 294 294 295 294 292 291 290 289 289 290 291 290 287 285 284
251 251 252 253 254 254 255 256 256 257 258 259 260 260 261 262 263 263 264 264 265 265 266 266 267 268 268 268 268 267 267 267 268 268 269 269 270 271 272 273 274 275 276 276 277 278 278 278 279 280 281 284 285 285 283 284 286 286 286 288 288 289 289 291 293 289 287 287 288 291 293 294 295 295 298 301 298 296 294 294 293 292 292 291 290 288 287 285
250 251 252 253 254 255 255 256 257 257 258 259 260 261 262 263 263 263 264 265 265 265 265 266 266 267 268 268 267 266 266 267 267 268 269 270 270 271 272 273 273 275 276 276 277 277 277 278 279 280 283 285 284 283 283 285 286 286 287 287 287 288 289 292 292 289 287 288 290 293 292 291 293 295 297 298 295 293 293 292 291 291 290 290 290 289 289 288
251 251 252 253 254 255 256 257 257 258 259 260 261 262 263 263 264 264 265 266 266 266 267 267 267 267 268 267 267 267 266 266 267 268 269 270 271 272 272 272 273 275 276 277 276 276 277 278 279 281 284 284 282 282 283 284 286 287 287 287 287 289 291 293 292 290 290 289 290 290 288 288 290 290 291 291 290 290 290 290 290 290 290 291 291 290 290 290
251 252 252 253 254 255 256 256 257 259 260 260 261 262 263 264 265 265 265 266 267 267 267 268 267 267 268 269 268 267 267 267 267 268 269 270 270 270 271 272 273 274 275 275 275 276 277 278 279 283 284 281 280 280 280 282 285 287 287 287 288 290 292 292 291 291 291 289 288 286 285 287 288 288 287 286 286 287 288 289 291 291 291 291 291 291 291 290
251 252 252 253 254 255 255 256 257 259 260 261 262 263 265 266 266 266 266 266 266 267 267 267 267 267 268 268 268 268 268 268 268 269 269 269 270 271 271 271 271 272 273 273 274 277 278 278 281 283 280 278 278 278 279 281 283 286 287 288 289 291 291 289 289 289 288 287 288 287 288 290 291 291 289 289 290 290 291 293 293 293 294 294 294 293 292 291
251 252 253 253 254 255 256 257 258 259 260 262 263 264 265 266 267 267 267 266 266 266 267 267 267 267 267 267 268 269 268 268 268 269 269 270 270 271 271 271 271 272 271 272 276 278 278 279 281 280 278 278 278 278 279 281 283 285 287 288 289 290 289 288 288 287 286 286 287 290 293 295 295 295 295 296 297 297 299 299 298 299 300 301 300 299 297 296
251 252 253 254 255 257 257 258 259 260 262 263 264 265 266 266 266 267 267 266 264 265 267 267 267 267 267 267 268 269 269 270 270 269 270 271 271 271 271 272 273 272 273 275 277 277 278 280 280 278 278 278 278 279 279 280 282 283 284 286 287 287 286 287 287 287 289 291 292 295 297 298 298 297 297 299 300 302 303 303 303 304 305 305 305 304 303 302
251 252 253 255 256 258 259 260 261 262 263 264 265 266 267 267 267 267 267 267 265 264 266 267 267 267 267 268 268 269 271 271 271 271 271 271 271 271 272 273 273 273 275 276 276 276 278 280 278 277 277 277 278 279 280 280 281 282 283 283 284 284 285 286 287 288 290 292 295 298 299 300 299 297 298 300 301 302 304 305 306 307 308 308 307 307 305 304
252 253 254 255 256 258 260 261 262 263 264 265 266 267 268 269 269 269 268 268 266 265 265 266 267 267 268 269 270 271 272 272 272 272 272 272 272 272 272 273 273 274 274 274 274 275 276 276 274 274 275 276 277 279 279 279 279 280 281 280 280 281 283 285 286 288 289 290 293 295 297 298 299 299 302 302 303 305 305 306 308 309 310 310 309 307 305 304
252 253 254 255 256 258 259 261 262 263 264 265 267 268 270 270 271 271 271 270 268 267 266 265 265 267 269 270 272 274 274 274 273 272 272 272 271 271 271 271 271 272 272 272 272 274 274 272 272 272 274 275 277 277 276 276 277 277 277 277 279 280 281 283 285 288 290 292 293 294 296 298 298 301 304 303 303 305 307 307 308 309 309 308 307 306 304 303
252 254 254 255 257 258 260 261 263 264 265 266 268 270 271 271 272 272 272 271 269 268 267 266 266 267 269 271 273 275 275 275 274 272 271 270 270 270 270 270 270 270 269 269 270 271 271 271 271 272 273 275 276 275 275 275 276 275 274 276 277 279 280 283 284 287 290 293 294 295 297 297 297 300 303 302 303 305 306 307 308 307 306 306 305 303 302 301
253 255 256 257 259 260 261 262 264 265 266 267 269 270 271 271 270 271 270 271 270 268 267 267 268 268 269 271 273 274 275 274 273 271 270 269 269 269 268 268 268 267 267 268 269 270 270 270 271 272 273 274 274 274 276 278 278 278 278 278 278 278 279 281 283 286 289 291 293 295 296 295 294 297 299 300 302 302 303 305 306 305 305 305 304 303 302 300
255 256 258 259 261 262 263 264 265 265 265 267 268 269 269 268 268 268 268 268 269 268 268 269 270 271 270 270 271 271 271 271 270 269 268 267 268 268 267 267 267 267 267 269 269 270 271 271 272 273 273 272 272 274 277 278 279 280 280 280 280 280 281 283 284 286 288 290 293 294 293 293 291 291 294 297 300 300 301 302 302 303 303 302 302 302 301 300
255 257 258 260 261 262 264 265 265 264 264 265 265 265 265 265 266 266 265 264 266 268 269 270 270 271 272 271 269 268 268 268 268 268 268 268 268 268 267 268 269 269 270 271 271 271 272 272 273 274 273 272 273 275 275 276 278 279 278 278 280 281 283 284 284 286 287 288 290 290 289 289 287 287 291 295 299 300 301 301 300 300 300 299 299 297 296 296
255 256 258 259 261 263 264 264 263 263 261 260 260 261 261 262 262 262 262 264 266 268 269 270 271 271 271 271 270 269 269 269 268 268 269 269 270 271 271 271 270 271 271 272 272 272 273 274 274 274 274 275 276 276 277 278 278 277 276 277 279 280 282 283 284 286 285 285 286 285 285 285 285 288 292 295 298 300 299 299 298 296 295 294 292 290 289 288
255 256 257 259 261 263 264 263 262 261 259 257 258 260 262 263 262 261 263 265 266 267 268 270 272 271 270 270 272 272 272 272 272 271 270 271 273 274 274 273 273 273 273 273 273 273 274 275 276 277 278 278 277 278 279 279 278 277 278 279 280 281 281 282 283 283 281 282 283 283 284 284 285 290 293 295 296 295 294 294 292 290 289 287 285 285 285 284
254 255 257 258 258 258 259 259 257 256 257 258 257 257 257 259 262 264 265 266 267 269 271 271 271 271 270 271 272 273 273 273 273 273 274 275 275 275 275 275 275 274 274 275 275 275 277 279 280 281 281 281 280 280 279 278 278 279 280 280 280 280 281 281 281 280 279 280 283 284 284 284 286 290 292 293 292 291 290 290 287 285 284 282 282 282 282 282
255 255 257 256 253 253 252 249 246 245 248 251 250 250 251 254 259 262 263 265 267 269 271 271 271 271 272 273 274 275 275 276 276 276 277 278 278 278 277 276 274 273 274 274 275 277 279 279 280 281 282 282 281 279 278 278 280 280 280 279 278 279 281 280 279 279 280 281 283 284 284 285 289 291 291 291 290 289 288 286 284 283 282 282 282 282 282 282
251 251 252 250 247 247 243 239 240 241 241 245 248 251 254 256 259 260 261 263 264 265 266 267 269 270 272 274 274 275 277 278 279 279 278 278 278 277 276 274 273 273 273 274 275 277 277 278 279 280 280 279 278 277 277 279 280 279 278 278 279 279 279 278 277 279 281 281 282 284 284 287 290 291 291 290 289 287 284 283 282 281 281 281 281 281 281 281
241 240 240 240 239 238 235 235 241 244 245 249 254 259 261 261 261 260 260 261 260 261 262 264 266 268 270 272 273 275 276 277 278 278 278 277 275 274 273 271 271 272 273 275 276 276 276 277 277 277 276 275 275 276 277 278 278 278 278 278 278 277 275 276 277 278 279 279 282 285 285 287 289 290 290 288 286 284 282 281 281 279 279 279 278 278 278 279
237 238 238 237 235 234 234 237 241 243 246 247 250 256 258 257 258 259 259 260 260 260 261 263 265 267 269 270 271 274 274 273 273 274 274 273 272 272 271 269 269 271 273 275 276 275 275 276 275 275 276 276 276 276 276 275 275 275 275 274 274 273 273 275 277 279 280 280 282 284 285 287 288 289 289 286 283 282 280 280 279 278 278 278 277 278 278 279
237 240 241 239 238 236 235 237 238 238 239 239 240 245 248 251 255 258 259 260 262 263 263 264 266 268 269 270 272 272 271 269 268 268 267 267 268 268 268 267 268 271 273 274 274 274 274 276 276 276 278 279 277 275 273 273 273 272 270 269 270 272 275 277 279 281 281 281 282 284 284 286 286 287 286 283 281 280 279 278 277 277 277 277 276 277 277 278
236 239 241 240 240 239 237 236 235 234 234 235 236 239 243 249 253 256 259 261 264 266 267 268 268 269 269 269 269 269 267 266 264 264 265 266 267 268 268 270 271 273 274 274 274 275 275 276 277 278 280 279 276 274 272 272 270 267 267 268 270 275 278 280 280 281 282 282 284 285 284 285 286 286 283 280 278 279 278 276 275 275 276 275 275 275 276 276
236 238 241 241 241 241 239 237 238 239 238 235 235 238 242 247 251 254 257 259 260 262 264 266 267 267 268 267 265 263 262 263 264 267 269 270 271 271 272 274 275 276 276 275 275 276 276 276 278 279 279 276 274 273 271 270 269 269 271 274 278 281 282 281 281 282 283 283 283 283 283 285 287 285 281 278 278 277 275 274 274 274 274 274 274 275 276 275
242 241 242 242 243 243 242 240 241 246 247 243 241 244 247 250 251 252 255 258 259 259 261 262 262 262 263 262 262 262 261 263 265 267 268 270 271 272 273 275 277 277 277 277 277 277 277 277 277 277 275 274 271 270 270 270 273 275 277 280 283 283 283 283 283 285 284 281 280 280 280 283 287 284 281 279 279 278 276 274 273 272 272 272 273 274 275 274
249 249 246 245 245 245 245 244 244 248 250 249 250 253 255 257 257 254 255 260 263 264 264 264 264 264 263 261 260 260 260 263 264 266 267 269 270 272 274 275 275 276 276 276 276 276 275 273 272 271 270 270 271 271 273 274 275 278 279 281 282 282 283 283 284 285 283 279 279 277 276 281 286 283 280 279 279 277 276 275 273 272 271 271 272 272 272 271
251 252 250 248 246 246 245 245 246 250 252 253 254 256 258 259 260 259 259 262 265 266 266 266 266 265 264 261 259 258 259 262 264 265 267 269 271 273 274 274 273 273 274 274 273 273 272 270 270 269 269 270 272 274 275 276 278 280 281 281 281 282 283 283 283 283 280 279 279 276 274 281 285 282 279 278 276 274 273 273 273 273 272 271 271 271 271 270
251 252 252 250 249 248 247 247 248 249 251 252 253 255 256 257 259 260 261 263 263 262 262 262 263 262 260 259 257 257 258 260 263 264 266 269 271 272 274 274 272 273 274 274 274 273 272 270 270 271 271 271 273 274 276 278 280 280 281 281 281 283 284 284 284 282 278 279 279 274 275 282 284 281 278 276 274 273 272 272 271 272 272 272 272 272 272 272
251 251 252 251 251 250 249 250 250 249 248 249 250 253 255 256 257 258 259 261 258 254 253 254 254 253 252 252 253 255 256 260 265 267 268 270 272 272 272 272 272 272 272 272 273 273 271 270 270 270 271 272 273 275 276 278 278 279 280 281 282 284 284 284 283 279 277 278 277 275 279 282 280 279 278 276 275 275 273 273 272 272 273 274 274 275 274 273
248 249 250 251 251 250 250 250 251 251 250 250 251 253 255 256 257 257 257 257 256 251 248 247 245 244 245 247 250 253 258 264 270 271 272 272 272 272 271 271 271 271 271 272 272 272 271 271 270 271 271 272 273 274 274 275 276 277 278 279 281 283 283 282 279 276 276 276 275 278 281 278 276 278 279 277 276 275 275 275 275 275 275 276 276 276 275 275
247 247 248 249 250 250 250 249 249 249 249 249 250 252 254 255 254 253 252 254 254 250 247 245 244 244 246 249 253 257 263 270 273 273 273 273 272 272 271 271 271 271 271 271 271 271 271 270 271 271 271 271 271 271 272 273 274 275 276 277 279 280 280 279 276 275 276 275 275 279 279 275 275 277 276 277 278 277 276 276 277 278 279 279 278 277 277 276
248 248 248 248 249 249 249 249 247 245 244 246 249 250 252 253 251 248 248 252 250 246 245 245 245 247 251 255 259 263 266 273 275 274 273 272 272 272 271 271 270 270 271 270 270 270 269 270 270 270 270 270 270 270 271 272 273 273 274 276 277 277 277 275 274 276 276 275 276 278 276 274 276 276 275 277 278 277 278 278 279 280 280 280 279 278 278 278
250 250 250 249 250 250 249 248 247 246 246 248 249 250 251 252 250 247 246 249 247 244 244 246 246 248 253 258 263 266 269 274 276 274 272 272 271 271 271 270 270 270 270 270 270 270 269 270 270 269 269 269 269 270 271 271 271 272 273 275 276 275 274 273 275 276 276 275 276 278 276 275 277 278 278 277 277 278 279 280 280 279 279 279 279 279 279 279
251 251 252 252 251 251 250 250 249 250 250 250 251 252 252 252 251 249 248 249 249 247 247 249 249 252 256 261 266 269 271 274 275 273 273 272 272 271 270 270 270 270 270 270 269 269 269 269 269 270 269 268 269 270 270 270 271 271 272 275 276 275 274 275 276 275 274 275 277 277 276 276 277 278 278 277 277 278 279 280 280 279 279 279 280 280 281 281
252 252 253 254 254 254 254 253 253 253 253 253 254 254 254 254 254 253 253 253 252 251 251 253 255 258 262 265 269 271 273 274 273 273 272 272 272 271 270 270 270 270 270 270 269 270 270 269 270 270 268 268 269 269 268 270 269 268 273 278 278 276 275 276 274 273 274 276 277 276 277 278 279 277 277 277 278 279 280 280 280 280 281 281 281 282 282 282
253 253 253 254 255 255 257 257 257 257 257 258 258 257 256 256 256 256 256 256 255 255 256 257 259 263 265 267 269 271 272 272 272 272 272 272 272 271 271 271 271 271 271 270 270 270 270 270 270 269 268 269 269 268 269 268 266 270 279 283 278 274 273 273 272 273 275 276 276 277 279 280 280 278 278 279 280 280 280 280 281 281 282 283 283 284 284 284
Height
5874 5875 5876 5877 5877 5878 5878 5879 5879 5880 5880 5880 5881 5881 5881 5882 5882 5882 5882 5882 5883 5883 5883 5883 5883 5883 5883 5883 5884 5884 5884 5884 5884 5884 5885 5884 5884 5884 5885 5885 5885 5884 5884 5884 5884 5884 5884 5884 5884 5884 5883 5883 5883 5882 5882 5881 5881 5881 5881 5879 5878 5878 5877 5877 5876 5876 5876 5875 5875 5875 5875 5874 5874 5873 5873 5873 5872 5872 5869 5865 5866 5867 5865 5864 5863 5863 5862 5862
5872 5873 5874 5874 5875 5876 5876 5877 5877 5878 5878 5878 5879 5879 5879 5880 5880 5880 5880 5881 5881 5881 5881 5882 5882 5882 5882 5882 5882 5882 5882 5882 5883 5883 5883 5883 5883 5883 5883 5883 5883 5883 5882 5882 5882 5882 5882 5882 5882 5882 5881 5881 5881 5880 5879 5879 5879 5879 5878 5877 5876 5876 5875 5875 5874 5873 5874 5873 5873 5872 5872 5872 5871 5871 5871 5871 5870 5869 5867 5866 5866 5866 5863 5861 5860 5860 5860 5860
5869 5870 5871 5872 5873 5873 5874 5874 5875 5875 5876 5876 5876 5877 5877 5877 5878 5878 5878 5879 5879 5879 5879 5880 5880 5880 5880 5881 5881 5881 5880 5880 5881 5881 5881 5881 5881 5881 5881 5881 5881 5881 5880 5880 5880 5880 5880 5880 5880 5879 5879 5879 5878 5877 5877 5877 5877 5876 5876 5875 5874 5874 5873 5873 5872 5871 5871 5871 5870 5870 5870 5869 5868 5868 5868 5868 5869 5866 5865 5865 5865 5865 5863 5860 5858 5858 5857 5857
5867 5868 5869 5869 5870 5871 5871 5872 5872 5873 5873 5874 5874 5874 5875 5875 5875 5876 5876 5876 5877 5877 5877 5878 5878 5878 5879 5879 5879 5879 5878 5878 5878 5879 5879 5879 5879 5878 5878 5879 5878 5878 5878 5878 5878 5878 5878 5878 5877 5877 5876 5876 5876 5875 5874 5875 5875 5874 5873 5873 5872 5872 5871 5870 5870 5869 5869 5869 5869 5868 5868 5868 5866 5865 5865 5865 5866 5865 5863 5862 5863 5863 5862 5859 5857 5856 5854 5853
5864 5865 5866 5867 5867 5868 5869 5869 5870 5870 5871 5871 5871 5872 5872 5872 5873 5873 5874 5874 5874 5875 5875 5875 5876 5876 5876 5877 5877 5877 5876 5876 5876 5876 5876 5877 5877 5876 5876 5876 5876 5876 5875 5875 5875 5875 5875 5875 5875 5875 5874 5873 5873 5872 5872 5872 5872 5872 5871 5870 5870 5870 5869 5868 5868 5867 5867 5866 5866 5866 5866 5866 5865 5863 5862 5862 5863 5863 5862 5860 5860 5860 5859 5858 5856 5854 5852 5851
5861 5862 5863 5864 5865 5865 5866 5866 5867 5867 5868 5868 5869 5869 5869 5870 5870 5871 5871 5872 5872 5872 5873 5873 5873 5874 5874 5874 5874 5874 5874 5873 5874 5874 5874 5874 5874 5874 5873 5873 5873 5873 5873 5872 5872 5872 5872 5872 5872 5872 5871 5870 5870 5870 5869 5870 5870 5870 5869 5869 5868 5868 5867 5866 5865 5865 5864 5864 5864 5864 5864 5863 5863 5862 5861 5859 5860 5861 5860 5858 5857 5857 5856 5855 5853 5852 5850 5848
5858 5859 5860 5861 5861 5862 5863 5863 5864 5864 5865 5865 5866 5866 5867 5867 5868 5868 5869 5869 5869 5870 5870 5870 5871 5871 5872 5872 5872 5872 5871 5870 5871 5871 5871 5872 5871 5871 5871 5870 5870 5870 5870 5869 5869 5869 5869 5868 5868 5868 5868 5867 5867 5867 5867 5867 5867 5868 5868 5867 5867 5866 5865 5864 5863 5862 5861 5862 5861 5862 5862 5860 5860 5861 5860 5857 5857 5858 5857 5856 5855 5854 5853 5850 5849 5847 5847 5846
5855 5855 5856 5857 5858 5859 5860 5860 5861 5861 5862 5862 5863 5863 5864 5864 5865 5865 5866 5866 5866 5867 5867 5868 5868 5868 5869 5869 5869 5869 5867 5866 5868 5868 5868 5868 5868 5868 5867 5867 5867 5867 5866 5866 5866 5866 5865 5865 5865 5865 5865 5865 5865 5864 5864 5864 5864 5865 5865 5864 5864 5863 5862 5862 5861 5860 5859 5859 5858 5858 5859 5857 5857 5859 5857 5854 5855 5855 5854 5853 5852 5851 5850 5847 5844 5842 5842 5843
5851 5852 5853 5854 5855 5856 5856 5857 5857 5858 5859 5859 5860 5860 5861 5861 5862 5862 5863 5863 5863 5864 5864 5865 5865 5865 5866 5866 5867 5866 5864 5864 5864 5864 5864 5864 5864 5865 5864 5864 5864 5863 5863 5863 5863 5863 5862 5862 5862 5862 5862 5862 5862 5861 5861 5861 5861 5861 5861 5861 5860 5860 5859 5858 5857 5857 5856 5856 5854 5855 5857 5854 5854 5856 5855 5852 5853 5852 5852 5851 5849 5848 5847 5844 5841 5838 5839 5840
5847 5848 5849 5850 5851 5852 5853 5853 5854 5855 5855 5856 5856 5856 5857 5858 5858 5859 5859 5860 5860 5860 5860 5861 5862 5862 5862 5863 5864 5863 5861 5861 5861 5861 5861 5861 5861 5861 5861 5861 5861 5860 5860 5860 5860 5860 5859 5859 5859 5859 5859 5860 5859 5858 5858 5859 5858 5858 5858 5858 5857 5856 5856 5854 5853 5854 5853 5852 5850 5850 5853 5852 5850 5852 5852 5850 5850 5850 5850 5849 5847 5845 5843 5840 5839 5837 5837 5837
5843 5844 5845 5846 5847 5848 5849 5850 5850 5851 5851 5852 5852 5853 5853 5854 5854 5855 5855 5856 5856 5856 5856 5857 5858 5858 5859 5859 5860 5860 5858 5858 5858 5857 5857 5857 5858 5858 5858 5857 5857 5857 5857 5857 5857 5857 5856 5856 5856 5856 5856 5857 5856 5855 5855 5855 5855 5855 5854 5855 5854 5853 5853 5851 5850 5851 5850 5849 5846 5845 5847 5849 5848 5848 5849 5848 5847 5846 5847 5847 5844 5841 5838 5836 5836 5836 5836 5836
5839 5840 5841 5842 5843 5844 5845 5845 5846 5846 5847 5847 5848 5848 5849 5849 5850 5851 5851 5852 5852 5852 5852 5853 5853 5854 5855 5856 5856 5856 5856 5856 5855 5854 5854 5854 5855 5855 5855 5854 5854 5854 5854 5854 5854 5854 5853 5853 5853 5853 5853 5853 5853 5852 5852 5852 5851 5851 5850 5851 5851 5850 5849 5848 5847 5847 5847 5846 5843 5840 5841 5844 5846 5845 5845 5845 5844 5843 5843 5844 5841 5837 5835 5834 5833 5833 5834 5834
5835 5836 5837 5838 5839 5840 5840 5841 5841 5842 5843 5843 5844 5844 5845 5845 5846 5846 5847 5847 5848 5848 5849 5849 5849 5850 5851 5853 5853 5852 5852 5852 5852 5851 5850 5850 5851 5851 5851 5851 5851 5850 5850 5850 5850 5850 5850 5850 5849 5849 5849 5849 5849 5849 5848 5848 5847 5847 5846 5845 5847 5847 5847 5846 5844 5843 5843 5842 5840 5837 5836 5839 5842 5842 5842 5841 5840 5840 5840 5840 5836 5834 5832 5832 5831 5831 5832 5832
5830 5831 5833 5833 5834 5835 5836 5836 5837 5837 5838 5838 5839 5840 5840 5841 5842 5842 5843 5843 5844 5844 5844 5845 5845 5846 5847 5849 5849 5848 5848 5848 5848 5847 5847 5847 5846 5847 5847 5847 5847 5847 5847 5846 5846 5846 5846 5846 5845 5845 5845 5845 5845 5845 5845 5844 5843 5843 5841 5840 5840 5841 5844 5844 5841 5840 5839 5837 5836 5834 5832 5834 5838 5839 5839 5838 5837 5836 5837 5836 5832 5831 5830 5830 5830 5830 5829 5828
5826 5827 5828 5828 5829 5830 5831 5831 5832 5833 5833 5834 5834 5835 5836 5837 5837 5838 5838 5839 5839 5839 5840 5840 5841 5841 5842 5844 5844 5844 5844 5844 5844 5844 5843 5843 5843 5842 5843 5843 5843 5843 5843 5843 5842 5842 5842 5842 5841 5841 5841 5841 5841 5841 5840 5840 5840 5839 5837 5836 5836 5836 5838 5840 5840 5837 5835 5833 5831 5830 5829 5831 5833 5833 5834 5835 5834 5833 5833 5831 5828 5828 5828 5828 5828 5827 5825 5824
5821 5822 5822 5824 5824 5825 5826 5827 5827 5828 5829 5829 5830 5831 5831 5832 5833 5833 5834 5834 5834 5835 5835 5836 5836 5836 5838 5840 5840 5840 5840 5840 5840 5840 5840 5839 5839 5839 5839 5839 5839 5839 5839 5839 5838 5838 5838 5837 5837 5836 5837 5837 5837 5837 5835 5835 5836 5835 5832 5831 5832 5831 5831 5834 5837 5835 5831 5828 5827 5827 5826 5828 5829 5827 5828 5829 5829 5828 5828 5826 5825 5824 5824 5823 5823 5822 5822 5821
5816 5817 5818 5819 5820 5820 5821 5822 5823 5823 5824 5825 5825 5826 5827 5828 5828 5828 5829 5829 5830 5830 5830 5831 5832 5832 5833 5835 5835 5836 5835 5836 5836 5836 5835 5836 5836 5835 5835 5835 5835 5835 5835 5835 5834 5834 5833 5832 5832 5832 5833 5833 5833 5832 5830 5830 5831 5830 5828 5827 5827 5827 5827 5829 5831 5830 5827 5825 5824 5824 5823 5823 5824 5823 5823 5823 5822 5822 5822 5821 5820 5820 5820 5819 5818 5818 5817 5816
5811 5812 5813 5814 5815 5816 5817 5817 5818 5819 5820 5821 5821 5822 5823 5823 5824 5824 5824 5825 5825 5826 5826 5827 5827 5827 5828 5830 5830 5830 5831 5831 5832 5831 5831 5831 5831 5831 5831 5831 5831 5831 5831 5830 5830 5829 5828 5828 5828 5828 5830 5830 5829 5827 5825 5826 5826 5825 5825 5824 5823 5823 5823 5824 5824 5823 5822 5821 5821 5821 5819 5819 5820 5820 5820 5818 5817 5817 5817 5816 5815 5816 5815 5814 5814 5813 5812 5811
5806 5807 5808 5809 5810 5811 5812 5813 5814 5815 5816 5817 5817 5818 5818 5818 5819 5820 5820 5820 5821 5821 5821 5822 5823 5823 5823 5824 5825 5825 5826 5827 5827 5827 5827 5827 5827 5827 5827 5826 5826 5826 5826 5826 5825 5824 5824 5824 5824 5825 5826 5825 5823 5822 5821 5821 5821 5820 5820 5819 5818 5818 5819 5820 5818 5817 5817 5817 5818 5818 5816 5816 5817 5818 5818 5815 5814 5813 5812 5811 5811 5811 5810 5809 5809 5808 5808 5807
5801 5802 5804 5805 5806 5807 5807 5808 5809 5811 5811 5812 5813 5813 5813 5814 5814 5815 5815 5816 5816 5816 5816 5817 5818 5818 5818 5819 5819 5819 5821 5822 5822 5823 5823 5823 5822 5822 5822 5822 5822 5822 5822 5821 5819 5820 5820 5819 5820 5822 5822 5820 5818 5818 5817 5817 5816 5815 5815 5814 5814 5815 5815 5815 5813 5812 5812 5812 5813 5813 5812 5812 5813 5814 5814 5812 5811 5810 5808 5807 5807 5806 5805 5805 5804 5804 5804 5803
5796 5797 5799 5800 5801 5802 5802 5804 5805 5806 5807 5808 5808 5809 5809 5809 5809 5810 5810 5811 5811 5811 5811 5812 5812 5813 5814 5813 5813 5814 5816 5817 5818 5818 5818 5818 5818 5817 5818 5818 5818 5818 5818 5816 5815 5816 5815 5814 5817 5818 5816 5814 5814 5814 5813 5813 5812 5811 5810 5810 5810 5811 5811 5810 5809 5809 5808 5807 5807 5807 5807 5808 5808 5808 5807 5806 5805 5804 5803 5803 5802 5801 5800 5800 5800 5799 5798 5798
5791 5793 5794 5795 5796 5797 5798 5799 5800 5801 5802 5803 5803 5804 5804 5804 5804 5805 5805 5806 5807 5807 5806 5807 5807 5808 5809 5808 5808 5809 5810 5812 5813 5814 5814 5813 5813 5813 5812 5812 5814 5814 5812 5811 5812 5811 5809 5811 5814 5812 5810 5809 5809 5809 5810 5809 5808 5807 5806 5806 5806 5806 5805 5805 5805 5805 5804 5803 5802 5801 5801 5801 5802 5801 5800 5799 5799 5798 5797 5797 5796 5795 5795 5794 5793 5793 5792 5791
5786 5788 5789 5790 5791 5792 5793 5794 5796 5797 5797 5798 5798 5799 5799 5799 5799 5799 5799 5800 5802 5803 5802 5802 5802 5802 5803 5803 5804 5804 5805 5807 5808 5809 5809 5809 5808 5808 5807 5808 5808 5808 5807 5807 5807 5805 5804 5807 5809 5806 5805 5805 5804 5805 5805 5804 5803 5803 5803 5802 5802 5802 5801 5801 5801 5799 5798 5797 5795 5795 5794 5795 5795 5794 5794 5793 5792 5792 5791 5790 5790 5789 5789 5788 5787 5786 5785 5784
5781 5783 5784 5785 5786 5787 5788 5789 5790 5791 5792 5793 5793 5793 5794 5794 5794 5794 5793 5793 5795 5799 5799 5797 5796 5796 5797 5797 5799 5800 5800 5802 5803 5803 5804 5804 5803 5803 5802 5803 5802 5802 5803 5803 5801 5799 5801 5803 5802 5800 5800 5800 5799 5800 5800 5799 5799 5799 5799 5799 5798 5797 5796 5796 5795 5794 5793 5791 5790 5789 5787 5788 5789 5788 5788 5788 5786 5786 5786 5785 5784 5783 5782 5781 5780 5779 5778 5777
5776 5778 5779 5780 5781 5782 5783 5784 5785 5786 5787 5787 5787 5788 5788 5788 5788 5788 5788 5786 5786 5792 5795 5793 5791 5790 5791 5792 5793 5795 5796 5796 5797 5798 5798 5798 5798 5798 5798 5797 5796 5797 5798 5797 5795 5795 5797 5798 5796 5795 5795 5795 5795 5796 5795 5794 5795 5795 5795 5794 5793 5793 5792 5790 5790 5789 5788 5787 5787 5786 5783 5782 5783 5781 5781 5781 5779 5780 5780 5779 5778 5777 5776 5775 5774 5773 5773 5772
5771 5772 5774 5774 5775 5776 5778 5778 5779 5780 5781 5781 5781 5782 5782 5782 5782 5782 5782 5780 5778 5783 5788 5788 5786 5785 5786 5788 5788 5790 5789 5790 5792 5792 5792 5792 5792 5792 5792 5792 5792 5792 5792 5791 5791 5791 5793 5793 5792 5791 5791 5791 5792 5792 5791 5790 5791 5791 5790 5789 5788 5788 5787 5786 5785 5784 5783 5782 5782 5781 5779 5777 5777 5776 5774 5773 5773 5773 5773 5773 5772 5771 5770 5769 5768 5768 5768 5767
5765 5766 5767 5768 5769 5771 5772 5773 5774 5775 5775 5775 5775 5776 5776 5776 5776 5777 5777 5773 5771 5775 5778 5780 5782 5782 5782 5783 5783 5784 5783 5784 5785 5785 5786 5786 5786 5786 5786 5786 5787 5787 5787 5786 5786 5787 5788 5787 5787 5788 5787 5787 5787 5786 5786 5786 5786 5786 5786 5785 5784 5783 5782 5781 5780 5779 5778 5777 5776 5776 5775 5773 5772 5771 5768 5767 5768 5768 5768 5767 5767 5766 5764 5763 5763 5763 5763 5763
5759 5761 5761 5762 5764 5765 5766 5767 5768 5769 5769 5769 5769 5769 5769 5770 5770 5771 5771 5768 5765 5767 5770 5772 5775 5777 5779 5779 5779 5779 5778 5779 5779 5779 5780 5780 5780 5781 5781 5781 5782 5781 5781 5781 5782 5782 5782 5783 5783 5783 5783 5783 5782 5781 5781 5781 5780 5780 5780 5779 5779 5778 5777 5777 5776 5775 5774 5773 5772 5773 5771 5769 5769 5768 5763 5762 5763 5764 5764 5763 5762 5760 5759 5758 5757 5757 5757 5757
5754 5755 5756 5756 5758 5759 5760 5762 5763 5762 5762 5762 5763 5763 5763 5764 5765 5765 5765 5762 5758 5759 5763 5767 5769 5771 5773 5774 5774 5774 5774 5774 5773 5773 5774 5775 5775 5776 5775 5776 5776 5776 5777 5777 5777 5777 5777 5777 5777 5778 5778 5778 5777 5777 5776 5775 5774 5774 5773 5772 5772 5771 5771 5771 5770 5770 5768 5768 5769 5769 5766 5765 5765 5765 5761 5759 5760 5760 5760 5760 5758 5756 5754 5753 5752 5751 5750 5750
5748 5749 5750 5750 5751 5751 5753 5756 5756 5755 5756 5756 5756 5757 5757 5758 5759 5759 5756 5754 5754 5754 5757 5761 5763 5764 5766 5767 5768 5769 5769 5769 5768 5768 5769 5769 5770 5770 5770 5770 5771 5771 5771 5772 5772 5771 5772 5772 5772 5772 5772 5771 5772 5772 5771 5770 5770 5769 5768 5767 5766 5765 5765 5764 5764 5764 5763 5763 5765 5764 5762 5761 5761 5760 5758 5756 5756 5755 5755 5754 5753 5751 5749 5748 5747 5746 5745 5744
5741 5743 5743 5744 5744 5745 5746 5749 5750 5749 5749 5749 5750 5750 5751 5752 5753 5751 5747 5748 5751 5751 5752 5755 5757 5759 5759 5760 5761 5762 5763 5763 5763 5764 5764 5764 5764 5764 5765 5765 5765 5765 5765 5766 5766 5766 5766 5766 5766 5766 5766 5766 5766 5766 5765 5765 5764 5763 5762 5762 5761 5759 5759 5758 5759 5759 5757 5758 5759 5758 5757 5757 5756 5755 5753 5753 5752 5749 5748 5748 5748 5747 5745 5744 5742 5741 5740 5739
5734 5735 5737 5737 5739 5739 5739 5741 5743 5742 5742 5744 5745 5745 5745 5745 5744 5741 5741 5745 5747 5746 5748 5750 5750 5752 5753 5754 5755 5755 5755 5756 5757 5758 5758 5758 5759 5759 5759 5758 5759 5759 5759 5760 5761 5760 5760 5760 5761 5761 5760 5761 5760 5759 5759 5758 5758 5757 5757 5756 5754 5753 5753 5753 5754 5753 5753 5754 5753 5752 5752 5750 5751 5751 5749 5749 5748 5745 5743 5743 5742 5742 5740 5739 5736 5734 5733 5733
5728 5729 5730 5731 5733 5733 5733 5735 5736 5736 5736 5738 5739 5740 5740 5738 5735 5735 5738 5741 5741 5741 5744 5745 5744 5745 5746 5748 5749 5748 5749 5750 5751 5751 5752 5752 5752 5752 5753 5753 5753 5753 5753 5754 5754 5753 5754 5755 5755 5754 5754 5754 5754 5754 5753 5752 5752 5752 5752 5750 5748 5748 5747 5748 5749 5747 5747 5749 5748 5746 5745 5744 5747 5747 5745 5745 5743 5740 5739 5738 5736 5735 5734 5732 5731 5728 5727 5726
5721 5722 5723 5725 5727 5728 5729 5730 5730 5730 5731 5732 5733 5733 5732 5730 5730 5732 5735 5737 5738 5738 5739 5739 5738 5739 5740 5741 5742 5742 5743 5743 5744 5745 5745 5745 5745 5746 5746 5747 5747 5747 5747 5748 5748 5748 5748 5749 5749 5749 5749 5749 5748 5748 5747 5747 5747 5746 5746 5745 5743 5744 5742 5742 5742 5741 5741 5743 5743 5740 5738 5738 5742 5742 5739 5738 5737 5735 5733 5731 5729 5728 5726 5725 5724 5722 5719 5718
5714 5716 5717 5719 5720 5722 5723 5724 5724 5725 5725 5725 5725 5724 5724 5726 5727 5730 5732 5733 5733 5734 5734 5734 5734 5734 5734 5735 5736 5736 5736 5737 5737 5738 5737 5738 5739 5740 5740 5741 5741 5741 5742 5742 5742 5743 5742 5743 5744 5744 5744 5744 5742 5742 5742 5742 5741 5740 5740 5739 5739 5739 5737 5735 5735 5735 5735 5735 5736 5735 5732 5732 5735 5735 5733 5731 5730 5729 5726 5725 5723 5720 5719 5718 5716 5715 5712 5710
5708 5709 5710 5712 5714 5715 5716 5718 5719 5718 5719 5719 5717 5716 5719 5722 5723 5725 5727 5727 5727 5728 5729 5729 5729 5729 5730 5730 5731 5731 5731 5732 5732 5731 5731 5732 5733 5734 5735 5735 5735 5735 5736 5737 5736 5736 5736 5737 5739 5739 5738 5738 5737 5737 5737 5737 5735 5734 5734 5734 5734 5733 5731 5729 5729 5730 5729 5726 5728 5730 5727 5725 5727 5728 5727 5725 5723 5722 5719 5718 5717 5714 5712 5711 5709 5707 5706 5704
5701 5703 5704 5706 5707 5708 5710 5712 5713 5713 5713 5712 5710 5711 5715 5717 5717 5718 5719 5720 5721 5722 5723 5724 5725 5725 5725 5725 5726 5726 5726 5726 5726 5726 5727 5727 5727 5729 5730 5730 5730 5730 5731 5731 5730 5730 5731 5731 5732 5732 5731 5731 5731 5731 5731 5731 5730 5729 5729 5729 5728 5727 5726 5725 5723 5723 5722 5717 5718 5723 5723 5720 5719 5719 5720 5717 5716 5715 5713 5712 5710 5707 5706 5703 5701 5699 5698 5697
5695 5697 5698 5700 5701 5703 5704 5706 5706 5707 5706 5704 5704 5707 5709 5710 5712 5712 5713 5714 5714 5715 5717 5718 5719 5719 5720 5720 5720 5721 5720 5721 5721 5721 5722 5722 5721 5723 5724 5724 5725 5725 5726 5726 5724 5724 5725 5724 5724 5725 5723 5723 5724 5724 5724 5725 5726 5725 5723 5723 5723 5721 5720 5720 5716 5715 5714 5709 5709 5714 5716 5716 5713 5711 5711 5708 5707 5708 5707 5705 5703 5701 5699 5696 5694 5692 5690 5689
5689 5690 5691 5694 5696 5697 5698 5699 5699 5699 5698 5697 5700 5703 5704 5705 5707 5706 5707 5708 5708 5708 5710 5711 5712 5712 5713 5715 5715 5715 5715 5715 5716 5716 5716 5716 5715 5717 5717 5717 5719 5720 5720 5719 5718 5718 5718 5717 5718 5718 5717 5716 5716 5716 5718 5719 5718 5717 5716 5716 5717 5716 5715 5713 5710 5707 5705 5702 5700 5702 5705 5709 5710 5706 5702 5699 5700 5702 5700 5698 5696 5694 5693 5690 5687 5685 5683 5682
5682 5683 5684 5687 5689 5690 5692 5693 5692 5691 5690 5693 5696 5697 5698 5701 5701 5701 5701 5702 5703 5702 5703 5704 5705 5705 5707 5709 5709 5710 5709 5709 5710 5710 5710 5709 5709 5710 5711 5711 5712 5713 5713 5712 5712 5712 5711 5711 5712 5712 5711 5710 5709 5710 5711 5710 5709 5709 5709 5709 5710 5709 5707 5704 5702 5702 5698 5694 5692 5691 5692 5700 5705 5700 5694 5692 5692 5693 5692 5690 5689 5687 5685 5682 5680 5678 5676 5675
5677 5678 5679 5681 5682 5683 5685 5685 5684 5684 5684 5689 5691 5691 5692 5695 5696 5697 5696 5695 5696 5697 5697 5698 5699 5700 5701 5702 5703 5704 5703 5702 5703 5703 5702 5703 5702 5703 5704 5704 5704 5705 5705 5705 5705 5705 5704 5704 5706 5706 5705 5704 5703 5703 5703 5702 5701 5701 5702 5703 5703 5701 5699 5695 5693 5696 5693 5685 5684 5682 5680 5689 5697 5693 5687 5686 5685 5684 5683 5682 5680 5678 5676 5674 5673 5671 5669 5667
5670 5671 5673 5675 5675 5677 5678 5677 5678 5678 5678 5682 5685 5684 5685 5688 5690 5691 5690 5689 5689 5689 5690 5691 5692 5694 5695 5696 5697 5697 5696 5695 5695 5695 5696 5697 5697 5697 5698 5697 5696 5697 5698 5698 5698 5699 5699 5698 5699 5700 5701 5699 5696 5694 5695 5694 5694 5694 5695 5698 5696 5692 5691 5688 5684 5687 5685 5678 5677 5675 5670 5677 5687 5685 5680 5679 5678 5676 5674 5673 5671 5669 5668 5667 5665 5663 5661 5658
5662 5663 5665 5668 5669 5670 5671 5670 5672 5672 5672 5676 5678 5677 5679 5680 5682 5684 5683 5683 5683 5682 5682 5684 5685 5687 5688 5688 5689 5690 5689 5688 5688 5689 5690 5690 5690 5690 5690 5690 5690 5690 5691 5692 5692 5693 5693 5691 5691 5693 5695 5692 5688 5686 5686 5686 5687 5688 5688 5689 5688 5685 5684 5681 5676 5676 5674 5672 5672 5668 5662 5668 5676 5676 5673 5671 5669 5669 5667 5665 5663 5660 5659 5659 5657 5655 5652 5650
5653 5655 5657 5659 5661 5663 5663 5665 5666 5666 5667 5669 5669 5670 5672 5672 5675 5677 5677 5677 5677 5676 5675 5676 5678 5679 5680 5680 5680 5681 5682 5681 5681 5683 5684 5684 5683 5684 5684 5683 5684 5684 5684 5685 5685 5685 5685 5684 5684 5685 5685 5684 5682 5680 5678 5679 5680 5680 5679 5679 5679 5678 5676 5672 5669 5665 5661 5663 5666 5660 5655 5661 5667 5665 5664 5662 5660 5661 5660 5657 5655 5653 5651 5650 5649 5648 5646 5644
5645 5647 5647 5649 5652 5654 5656 5658 5659 5659 5661 5662 5661 5663 5664 5664 5669 5671 5670 5671 5671 5669 5668 5669 5670 5671 5671 5672 5672 5673 5674 5674 5674 5674 5676 5676 5676 5677 5677 5676 5677 5678 5678 5678 5678 5677 5677 5676 5676 5676 5675 5675 5676 5674 5671 5672 5672 5671 5671 5671 5671 5671 5669 5665 5661 5655 5651 5653 5656 5653 5651 5654 5657 5656 5654 5653 5652 5653 5651 5648 5647 5646 5643 5642 5642 5641 5639 5636
5637 5637 5638 5640 5642 5644 5648 5650 5650 5651 5654 5654 5653 5654 5656 5658 5663 5664 5663 5664 5665 5663 5661 5662 5663 5663 5663 5664 5664 5665 5667 5668 5666 5665 5667 5668 5668 5669 5670 5670 5671 5671 5671 5671 5670 5669 5668 5667 5668 5668 5666 5667 5668 5666 5663 5663 5663 5663 5664 5665 5664 5663 5661 5657 5651 5646 5647 5646 5645 5648 5648 5645 5647 5650 5646 5642 5643 5643 5641 5639 5638 5637 5636 5636 5635 5633 5630 5627
5627 5628 5631 5632 5632 5635 5640 5641 5643 5644 5645 5645 5644 5646 5649 5651 5654 5655 5655 5657 5658 5656 5654 5654 5655 5656 5656 5657 5657 5657 5659 5659 5658 5658 5659 5659 5660 5661 5662 5663 5663 5664 5664 5663 5662 5661 5659 5658 5659 5659 5658 5659 5658 5656 5655 5656 5656 5655 5656 5658 5659 5657 5653 5648 5641 5640 5642 5637 5634 5642 5643 5634 5637 5645 5640 5633 5633 5632 5631 5631 5631 5629 5628 5627 5626 5623 5621 5618
5618 5621 5623 5623 5623 5628 5633 5635 5636 5636 5635 5635 5636 5638 5642 5644 5645 5646 5648 5649 5649 5647 5645 5645 5648 5650 5650 5649 5648 5648 5650 5649 5649 5651 5652 5651 5652 5653 5654 5655 5655 5655 5656 5655 5653 5653 5651 5649 5650 5650 5649 5650 5648 5646 5647 5648 5647 5647 5648 5651 5653 5651 5644 5637 5633 5636 5636 5628 5625 5634 5634 5626 5630 5636 5632 5627 5624 5622 5622 5623 5623 5622 5620 5618 5615 5613 5611 5609
5610 5612 5614 5614 5617 5622 5625 5627 5627 5625 5626 5627 5627 5630 5635 5636 5637 5639 5640 5639 5638 5639 5638 5636 5640 5643 5641 5640 5638 5638 5641 5642 5641 5643 5644 5643 5644 5645 5646 5646 5646 5648 5648 5646 5645 5644 5642 5641 5641 5641 5640 5640 5639 5637 5639 5639 5636 5637 5641 5643 5644 5641 5635 5630 5629 5631 5627 5619 5620 5625 5620 5619 5625 5626 5621 5620 5618 5614 5614 5615 5615 5614 5612 5609 5606 5603 5602 5600
5600 5603 5604 5605 5609 5614 5615 5616 5617 5616 5618 5618 5618 5624 5628 5626 5629 5632 5630 5627 5628 5631 5631 5628 5633 5635 5631 5630 5630 5630 5633 5635 5633 5633 5634 5633 5634 5636 5637 5637 5639 5639 5639 5638 5636 5635 5634 5633 5632 5632 5630 5629 5630 5630 5630 5629 5626 5627 5632 5635 5634 5631 5627 5626 5625 5623 5617 5613 5614 5614 5608 5611 5619 5617 5610 5610 5610 5608 5607 5606 5605 5604 5602 5600 5597 5594 5593 5590
5591 5593 5595 5596 5600 5604 5604 5606 5608 5607 5609 5610 5613 5618 5619 5617 5621 5622 5618 5617 5620 5622 5622 5622 5625 5625 5621 5622 5623 5623 5626 5626 5623 5624 5625 5624 5625 5626 5627 5628 5630 5630 5630 5630 5627 5626 5626 5624 5623 5623 5619 5619 5623 5622 5620 5620 5617 5617 5622 5628 5627 5623 5620 5619 5616 5613 5611 5607 5605 5602 5599 5603 5610 5607 5601 5600 5601 5600 5599 5597 5595 5594 5593 5591 5589 5586 5583 5580
5581 5583 5586 5587 5590 5594 5594 5596 5597 5597 5601 5606 5607 5608 5608 5609 5612 5610 5607 5608 5611 5612 5613 5615 5616 5615 5612 5613 5616 5617 5618 5617 5614 5615 5615 5615 5616 5616 5616 5618 5620 5621 5621 5620 5619 5618 5617 5615 5614 5613 5609 5609 5612 5612 5612 5610 5604 5605 5616 5622 5620 5616 5612 5609 5607 5607 5605 5600 5595 5592 5593 5595 5597 5594 5592 5592 5592 5592 5590 5588 5585 5584 5583 5582 5579 5576 5572 5570